Location: Unspecified
(0.0000°N, 0.0000°E)
Time: 14:40:53
(UTC+00:00)

deb Midas V - Pass Details

Date: 22 April 2026
Orbit: 2771 x 3389 km, 86.6° (Epoch: 16 May)

Event Time Altitude Azimuth Distance (km) Brightness Sun altitude
Rises 18:11:03 0° 358° (N) 7,354 ? -3.1°
Reaches altitude 10° 18:15:17 10° 357° (N) 6,293 ? -4.1°
Maximum altitude 18:32:39 78° 273° (W) 3,209 ? -8.3°
Drops below altitude 10° 18:48:36 10° 187° (S) 5,812 ? -12.2°
Sets 18:52:21 0° 185° (S) 6,776 ? -13.1°
